Regional Weather Roundup
Issued by NWS

Home | Current Version | Previous Version | Text Only | Print | Product List | Glossary On
Versions: 1 2 3 4 5 6 7 8 9 10 11 12 13 14 15 16 17 18 19 20 21 22 23 24 25 26 27 28 29 30 31 32 33 34 35 36 37 38 39 40 41 42 43 44 45 46 47 48 49 50
000
ASUS44 KFWD 181815
RWRTX
NORTH TEXAS HOURLY WEATHER ROUNDUP
NATIONAL WEATHER SERVICE FORT WORTH TX
1200 PM CST SUN FEB 18 2018

NOTE: "FAIR" INDICATES FEW OR NO CLOUDS BELOW 12,000 FEET WITH NO
SIGNIFICANT WEATHER AND/OR OBSTRUCTIONS TO VISIBILITY.

TXZ118-119-181900-
DALLAS/FORT WORTH METROPLEX

CITY           SKY/WX    TMP DP  RH WIND       PRES   REMARKS
DFW AIRPORT    CLOUDY    54  51  90 S10       30.10F FOG
6HR MIN TEMP:  48; 6HR MAX TEMP:  54; 6HR PCP: TRACE;

DALLAS LOVE    CLOUDY    53  51  93 SE9       30.11F FOG
6HR MIN TEMP:  47; 6HR MAX TEMP:  53; 6HR PCP: TRACE;

FTW MEACHAM    CLOUDY    54  51  90 SE15      30.07F
6HR MIN TEMP:  47; 6HR MAX TEMP:  54;

DAL-EXECUTIVE  CLOUDY    52  51  97 SE9       30.10F FOG
6HR MIN TEMP:  46; 6HR MAX TEMP:  52;

FTW-ALLIANCE   LGT RAIN  52  50  93 SE10      30.05F FOG
6HR MIN TEMP:  46; 6HR MAX TEMP:  52; 6HR PCP: TRACE;

FTW-NAS-JRB    CLOUDY    54  49  83 SE16      30.07F
6HR MIN TEMP:  47; 6HR MAX TEMP:  54;

FTW-SPINKS     CLOUDY    52  52 100 SE8       30.12F FOG
ARLINGTON      CLOUDY    51  51 100 SE10      30.10F
6HR MIN TEMP:  45; 6HR MAX TEMP:  51;

GRAND PRAIRIE  CLOUDY    52  52 100 SE7       30.13F
ADDISON        CLOUDY    52  50  93 SE8       30.11F FOG
MESQUITE       CLOUDY    52  50  93 SE6       30.13S FOG
LANCASTER      CLOUDY    51  51  99 SE6       30.13F FOG
6HR MIN TEMP:  44; 6HR MAX TEMP:  51;

$$

TXZ091>094-102>105-117-120-121-131>134-181900-
NORTH CENTRAL TEXAS

CITY           SKY/WX    TMP DP  RH WIND       PRES   REMARKS
SHRMAN/DENISON CLOUDY    49  48  95 SE9       30.09F FOG
6HR MIN TEMP:  41; 6HR MAX TEMP:  49;

GAINESVILLE    LGT RAIN  49  47  95 SW3       30.08F
6HR MIN TEMP:  44; 6HR MAX TEMP:  49;

BOWIE          CLOUDY    51  46  82 SE9       30.04F
6HR MIN TEMP:  42; 6HR MAX TEMP:  51;

BRIDGEPORT     FAIR      51  51 100 SE15      30.03F
6HR MIN TEMP:  39; 6HR MAX TEMP:  51; 6HR PCP:  0.01;

DECATUR        CLOUDY    50  49  96 SE22      30.00F FOG
6HR MIN TEMP:  45; 6HR MAX TEMP:  50; 6HR PCP:  0.01;

DENTON         RAIN      50  50 100 SE20G26   30.01F FOG
6HR MIN TEMP:  44; 6HR MAX TEMP:  51; 6HR PCP: TRACE;

MCKINNEY       CLOUDY    50  50 100 S10       30.11F FOG
6HR MIN TEMP:  44; 6HR MAX TEMP:  51;

BONHAM         CLOUDY    48  46  94 SE10      30.12F
6HR MIN TEMP:  44; 6HR MAX TEMP:  48;

GREENVILLE     CLOUDY    54  54 100 SE6       30.13F FOG
ROCKWALL       CLOUDY    51  51 100 S3        30.13S FOG
6HR MIN TEMP:  45; 6HR MAX TEMP:  51;

TERRELL        CLOUDY    54  51  90 SE6       30.13F
6HR MIN TEMP:  47; 6HR MAX TEMP:  53;

WAXAHACHIE     CLOUDY    52  52 100 SE3       30.12F FOG
6HR MIN TEMP:  45; 6HR MAX TEMP:  52;

CLEBURNE       CLOUDY    52  52 100 S7        30.12F FOG
GRANBURY       RAIN      53  49  89 SE14      30.08F
6HR MIN TEMP:  43; 6HR MAX TEMP:  53;

$$

TXZ083>090-098>101-113>116-127>130-139>142-154-155-181900-
WESTERN NORTH TEXAS

CITY           SKY/WX    TMP DP  RH WIND       PRES   REMARKS
WICHITA FALLS  FAIR      54  45  71 S21       29.99F
6HR MIN TEMP:  36; 6HR MAX TEMP:  55;

WF-KICKAPOO    FAIR      54  46  74 SE16G23   30.03F
6HR MIN TEMP:  37; 6HR MAX TEMP:  55;

VERNON         CLOUDY    60  41  49 S21       29.96F
6HR MIN TEMP:  36; 6HR MAX TEMP:  77;

ABILENE        CLOUDY    58  55  90 S10       29.98F
6HR MIN TEMP:  48; 6HR MAX TEMP:  58; 6HR PCP:  0.01;

ABILENE-DYESS  CLOUDY    60  56  87 S14       29.98F
6HR MIN TEMP:  49; 6HR MAX TEMP:  60; 6HR PCP:  0.02;

GRAHAM           N/A     54  54 100 SE8       29.98F
6HR MIN TEMP:  43; 6HR MAX TEMP:  54; 6HR PCP:  0.01;

BRECKENRIDGE   CLOUDY    59  52  77 S10G20    30.01S
6HR MIN TEMP:  47; 6HR MAX TEMP:  59;

CISCO          PTSUNNY   54  52  94 SE17G26   30.00F
EASTLAND       PTSUNNY   53  50  90 S10G20    29.99F
6HR MIN TEMP:  43; 6HR MAX TEMP:  53; 6HR PCP:  0.03;

RANGER         CLOUDY    53  52  98 S14G23    30.02R
6HR MIN TEMP:  43; 6HR MAX TEMP:  53; 6HR PCP:  0.04;

MINERAL WELLS  CLOUDY    50  48  93 SE9       30.01R FOG
6HR MIN TEMP:  41; 6HR MAX TEMP:  51; 6HR PCP:  0.05;

STEPHENVILLE   CLOUDY    52  49  90 S9        30.10F
6HR MIN TEMP:  44; 6HR MAX TEMP:  52; 6HR PCP:  0.03;

COMANCHE       CLOUDY    53  53 100 S12       30.06F
6HR MIN TEMP:  42; 6HR MAX TEMP:  54; 6HR PCP:  0.18;

COLEMAN        PTSUNNY   53  51  92 S17G25    30.00F
6HR MIN TEMP:  46; 6HR MAX TEMP:  53; 6HR PCP:  0.13;

$$

TXZ143>147-156>162-174-175-181900-
CENTRAL TEXAS

CITY           SKY/WX    TMP DP  RH WIND       PRES   REMARKS
WACO           CLOUDY    54  51  90 S8        30.11F FOG
6HR MIN TEMP:  44; 6HR MAX TEMP:  55;

WACO-TSTC      CLOUDY    55  54  94 S5        30.12F FOG
WACO-MCGREGOR  CLOUDY    54  52  93 SE8       30.11F
6HR MIN TEMP:  43; 6HR MAX TEMP:  54;

HILLSBORO      CLOUDY    55  54  97 SE7       30.11F FOG
6HR MIN TEMP:  47; 6HR MAX TEMP:  55;

CORSICANA      FOG       53  53 100 SE8       30.13F VSB 1
6HR MIN TEMP:  49; 6HR MAX TEMP:  54; 6HR PCP: TRACE;

MEXIA          CLOUDY    55  54  97 SE6       30.12S
6HR MIN TEMP:  46; 6HR MAX TEMP:  55;

HEARNE         CLOUDY    59  59 100 SE6       30.12F FOG
6HR MIN TEMP:  51; 6HR MAX TEMP:  59; 6HR PCP:  0.03;

CAMERON        CLOUDY    57  56  97 CALM      30.11F FOG
6HR MIN TEMP:  51; 6HR MAX TEMP:  57; 6HR PCP:  0.01;

TEMPLE         CLOUDY    54  53  97 S5        30.12F FOG
6HR MIN TEMP:  47; 6HR MAX TEMP:  54;

KILLEEN        CLOUDY    55  52  88 SE6       30.09F
6HR MIN TEMP:  47; 6HR MAX TEMP:  55;

KILLEEN-SKYLRK CLOUDY    55  54  94 SE5       30.10F FOG
6HR MIN TEMP:  48; 6HR MAX TEMP:  54; 6HR PCP: TRACE;

FORT HOOD      CLOUDY    52  52 100 SE5       30.07F
6HR MIN TEMP:  46; 6HR MAX TEMP:  52; 6HR PCP: TRACE;

GATESVILLE     CLOUDY    54  54 100 SE5       30.12F FOG
HAMILTON       LGT RAIN  52  52 100 CALM      30.13R
6HR MIN TEMP:  46; 6HR MAX TEMP:  53; 6HR PCP:  0.06;

LAMPASAS       CLOUDY    56  53  89 SE5       30.09F
6HR MIN TEMP:  46; 6HR MAX TEMP:  56;

$$

TXZ095>097-106>112-122>126-135>138-148>153-164>167-181900-
EAST TEXAS

CITY           SKY/WX    TMP DP  RH WIND       PRES   REMARKS
PARIS          CLOUDY    48  46  93 SE16      30.12F
6HR MIN TEMP:  45; 6HR MAX TEMP:  48;

SULPHUR SPRNGS CLOUDY    52  50  93 SE9       30.14F
6HR MIN TEMP:  47; 6HR MAX TEMP:  52;

MOUNT PLEASANT CLOUDY    51  48  90 E7        30.16F
6HR MIN TEMP:  47; 6HR MAX TEMP:  51;

GILMER         CLOUDY    50  49  97 E7        30.14F
6HR MIN TEMP:  46; 6HR MAX TEMP:  50;

MINEOLA        CLOUDY    52  50  93 SE6       30.13F
TYLER          CLOUDY    54  52  93 SE10      30.12F FOG
6HR MIN TEMP:  49; 6HR MAX TEMP:  54; 6HR PCP: TRACE;

LONGVIEW       CLOUDY    51  51 100 SE6       30.14F FOG
6HR MIN TEMP:  49; 6HR MAX TEMP:  51; 6HR PCP: TRACE;

MARSHALL       CLOUDY    50  48  92 SE3       30.17F
6HR MIN TEMP:  47; 6HR MAX TEMP:  50; 6HR PCP:  0.02;

ATHENS         CLOUDY    52  52 100 SE7       30.11F
PALESTINE      CLOUDY    56  56 100 SE5       30.15F FOG
JACKSONVILLE   FOG       56  56 100 S6        30.15F VSB 1/2
HENDERSON      FOG       52  52  99 E5        30.15F VSB 1/2
6HR MIN TEMP:  49; 6HR MAX TEMP:  52; 6HR PCP:  0.01;

CENTER         CLOUDY    54  53  95 CALM      30.17F FOG
6HR MIN TEMP:  50; 6HR MAX TEMP:  55;

NACOGDOCHES    CLOUDY    57  57 100 SE3       30.15F FOG
6HR MIN TEMP:  52; 6HR MAX TEMP:  58; 6HR PCP: TRACE;

LUFKIN         CLOUDY    61  60  97 S6        30.14F
6HR MIN TEMP:  53; 6HR MAX TEMP:  61;

$$

SUPPLEMENTAL OBSERVATIONS (NWS FORT WORTH AREA)

CITY           SKY/WX    TMP DP  RH WIND       PRE


USA.gov is the U.S. government's official web portal to all federal, state and local government web resources and services.